Location: Castiglione Fibocchi
(43.5333°N, 11.7667°E)
Time: 18:06:54
(UTC+00:00)

AQUA - Pass Details

Date: 15 August 2020
Orbit: 700 x 704 km, 98.2° (Epoch: 17 September)

Event Time Altitude Azimuth Distance (km) Brightness Sun altitude
Rises 01:27:21 0° 10° (N) 3,100 8.2 -25.3°
Reaches altitude 10° 01:29:38 10° 8° (N) 2,177 7.2 -25.1°
Maximum altitude 01:34:21 66° 287° (WNW) 767 3.8 -24.6°
Enters shadow 01:34:23 66° 284° (WNW) 768 3.8 -24.6°
